QPF
0.02 0.02 0.04 0.03 0.01 0.02 0.02 0.02 0.02 0.03 0.02 0.02 0.03 0.02 0.01 0.00 0.01 0.01 0.01 0.02 0.01 0.01 0.01 0.01 0.02 0.02 0.02 0.02 0.03 0.04 0.04 0.03 0.02 0.02 0.04 0.03 0.03 0.02 0.03 0.02 0.01 0.01 0.02 0.02
0.05 0.04 0.03 0.02 0.01 0.01 0.01 0.02 0.02 0.02 0.01 0.02 0.02 0.01 0.01 0.01 0.01 0.01 0.01 0.02 0.02 0.01 0.00 0.00 0.01 0.02 0.01 0.02 0.03 0.04 0.05 0.04 0.02 0.03 0.03 0.02 0.02 0.02 0.02 0.02 0.02 0.01 0.01 0.02
0.07 0.05 0.03 0.02 0.03 0.02 0.01 0.02 0.02 0.02 0.01 0.01 0.01 0.02 0.01 0.02 0.03 0.02 0.01 0.01 0.01 0.01 0.01 0.01 0.01 0.01 0.01 0.02 0.03 0.03 0.04 0.04 0.03 0.03 0.03 0.02 0.02 0.03 0.03 0.02 0.03 0.02 0.02 0.01
0.02 0.03 0.03 0.04 0.04 0.03 0.02 0.01 0.01 0.01 0.02 0.04 0.02 0.05 0.03 0.02 0.02 0.01 0.01 0.01 0.01 0.02 0.01 0.01 0.01 0.01 0.01 0.01 0.03 0.04 0.05 0.07 0.05 0.03 0.03 0.03 0.04 0.04 0.03 0.02 0.01 0.01 0.01 0.01
0.01 0.01 0.02 0.03 0.03 0.03 0.02 0.01 0.00 0.00 0.02 0.03 0.02 0.04 0.03 0.02 0.02 0.02 0.03 0.02 0.01 0.01 0.01 0.01 0.01 0.02 0.01 0.01 0.01 0.02 0.04 0.07 0.08 0.07 0.06 0.05 0.04 0.04 0.03 0.02 0.02 0.01 0.01 0.00
0.00 0.00 0.01 0.01 0.02 0.02 0.02 0.01 0.01 0.01 0.03 0.04 0.02 0.03 0.03 0.02 0.02 0.03 0.05 0.06 0.02 0.01 0.01 0.01 0.02 0.01 0.01 0.01 0.01 0.01 0.04 0.05 0.05 0.06 0.06 0.07 0.06 0.05 0.04 0.03 0.03 0.02 0.02 0.02
0.01 0.01 0.01 0.01 0.02 0.02 0.02 0.03 0.05 0.05 0.05 0.04 0.01 0.02 0.02 0.01 0.00 0.00 0.01 0.01 0.01 0.01 0.01 0.01 0.01 0.02 0.02 0.01 0.01 0.01 0.03 0.05 0.05 0.06 0.07 0.06 0.05 0.05 0.05 0.04 0.04 0.04 0.03 0.03
0.02 0.02 0.01 0.02 0.03 0.03 0.02 0.04 0.07 0.06 0.05 0.04 0.02 0.02 0.02 0.01 0.00 0.00 0.00 0.01 0.01 0.01 0.01 0.01 0.01 0.02 0.02 0.02 0.02 0.02 0.03 0.04 0.04 0.05 0.06 0.05 0.06 0.06 0.05 0.03 0.02 0.03 0.03 0.02
0.02 0.02 0.02 0.02 0.02 0.02 0.02 0.02 0.03 0.04 0.03 0.03 0.02 0.02 0.02 0.01 0.00 0.00 0.00 0.00 0.00 0.00 0.01 0.01 0.01 0.02 0.02 0.02 0.03 0.03 0.03 0.04 0.04 0.04 0.03 0.03 0.03 0.03 0.03 0.02 0.02 0.02 0.02 0.02
0.01 0.01 0.01 0.01 0.02 0.02 0.01 0.01 0.02 0.04 0.06 0.05 0.02 0.02 0.02 0.01 0.00 0.00 0.00 0.01 0.00 0.00 0.01 0.01 0.02 0.02 0.02 0.02 0.03 0.03 0.03 0.03 0.03 0.03 0.04 0.04 0.03 0.03 0.02 0.02 0.03 0.02 0.02 0.02
0.00 0.01 0.02 0.01 0.01 0.01 0.01 0.01 0.01 0.02 0.03 0.04 0.04 0.02 0.01 0.02 0.01 0.00 0.00 0.00 0.00 0.00 0.00 0.01 0.02 0.02 0.02 0.02 0.03 0.03 0.02 0.02 0.02 0.02 0.03 0.04 0.05 0.05 0.04 0.03 0.03 0.02 0.02 0.02
0.00 0.00 0.01 0.01 0.00 0.00 0.00 0.00 0.01 0.02 0.02 0.02 0.04 0.02 0.00 0.00 0.00 0.00 0.01 0.01 0.01 0.01 0.01 0.01 0.01 0.03 0.03 0.02 0.02 0.02 0.02 0.01 0.02 0.02 0.03 0.03 0.04 0.04 0.05 0.05 0.04 0.03 0.03 0.03
0.00 0.00 0.01 0.01 0.01 0.00 0.00 0.00 0.00 0.01 0.01 0.01 0.02 0.02 0.00 0.00 0.00 0.00 0.00 0.00 0.00 0.00 0.00 0.01 0.01 0.03 0.03 0.02 0.01 0.01 0.01 0.01 0.01 0.02 0.02 0.03 0.04 0.03 0.04 0.05 0.05 0.04 0.04 0.04
0.01 0.00 0.00 0.01 0.00 0.00 0.00 0.00 0.00 0.00 0.00 0.01 0.01 0.01 0.00 0.00 0.00 0.01 0.01 0.00 0.00 0.00 0.00 0.00 0.01 0.02 0.02 0.02 0.01 0.01 0.01 0.01 0.01 0.01 0.02 0.03 0.04 0.05 0.04 0.05 0.05 0.03 0.04 0.03
0.01 0.00 0.00 0.00 0.00 0.00 0.00 0.00 0.00 0.00 0.00 0.01 0.00 0.00 0.00 0.01 0.01 0.01 0.01 0.01 0.01 0.00 0.00 0.00 0.00 0.01 0.01 0.01 0.01 0.01 0.01 0.01 0.01 0.01 0.02 0.03 0.03 0.05 0.08 0.07 0.05 0.04 0.04 0.03
0.00 0.00 0.00 0.00 0.00 0.00 0.00 0.00 0.00 0.00 0.00 0.00 0.00 0.00 0.00 0.00 0.00 0.01 0.01 0.01 0.01 0.01 0.00 0.00 0.00 0.00 0.00 0.01 0.00 0.01 0.01 0.01 0.01 0.01 0.02 0.02 0.03 0.04 0.05 0.07 0.05 0.04 0.03 0.03
0.00 0.00 0.00 0.00 0.00 0.00 0.00 0.00 0.00 0.00 0.00 0.00 0.00 0.00 0.00 0.00 0.00 0.01 0.01 0.01 0.01 0.01 0.00 0.00 0.00 0.00 0.00 0.00 0.00 0.00 0.00 0.01 0.01 0.01 0.02 0.02 0.03 0.04 0.04 0.05 0.04 0.04 0.03 0.03
0.00 0.00 0.00 0.00 0.00 0.00 0.00 0.00 0.00 0.00 0.00 0.00 0.00 0.00 0.00 0.01 0.01 0.01 0.01 0.01 0.01 0.01 0.00 0.00 0.00 0.00 0.00 0.00 0.00 0.00 0.00 0.00 0.00 0.01 0.01 0.01 0.03 0.04 0.05 0.05 0.06 0.06 0.04 0.03
0.00 0.00 0.00 0.00 0.01 0.01 0.00 0.00 0.00 0.00 0.00 0.00 0.00 0.00 0.00 0.00 0.01 0.01 0.01 0.01 0.00 0.01 0.01 0.00 0.00 0.00 0.00 0.00 0.00 0.00 0.00 0.00 0.00 0.00 0.01 0.01 0.02 0.03 0.04 0.05 0.06 0.06 0.05 0.05
0.00 0.00 0.00 0.01 0.01 0.01 0.01 0.00 0.00 0.00 0.01 0.01 0.01 0.01 0.00 0.00 0.00 0.00 0.01 0.01 0.00 0.00 0.01 0.00 0.00 0.00 0.00 0.00 0.00 0.00 0.00 0.00 0.00 0.00 0.01 0.01 0.01 0.01 0.02 0.04 0.06 0.08 0.07 0.05
0.00 0.00 0.00 0.01 0.01 0.01 0.01 0.00 0.01 0.01 0.01 0.01 0.01 0.01 0.01 0.00 0.00 0.00 0.01 0.02 0.02 0.00 0.00 0.00 0.00 0.00 0.00 0.00 0.00 0.00 0.00 0.00 0.00 0.01 0.01 0.01 0.01 0.01 0.01 0.02 0.04 0.05 0.06 0.05
0.00 0.01 0.01 0.01 0.01 0.02 0.01 0.00 0.01 0.01 0.00 0.01 0.01 0.01 0.01 0.01 0.01 0.01 0.02 0.02 0.02 0.01 0.01 0.01 0.00 0.00 0.00 0.00 0.00 0.00 0.01 0.01 0.01 0.01 0.01 0.01 0.00 0.00 0.01 0.02 0.03 0.05 0.06 0.04
0.00 0.01 0.01 0.01 0.01 0.01 0.01 0.01 0.01 0.01 0.01 0.01 0.02 0.02 0.02 0.01 0.02 0.02 0.03 0.03 0.02 0.02 0.01 0.01 0.00 0.00 0.00 0.00 0.00 0.01 0.01 0.01 0.01 0.02 0.01 0.01 0.01 0.01 0.01 0.01 0.02 0.05 0.08 0.08
0.00 0.00 0.01 0.01 0.00 0.00 0.01 0.01 0.01 0.01 0.01 0.01 0.01 0.02 0.02 0.02 0.02 0.03 0.03 0.04 0.04 0.02 0.02 0.02 0.01 0.01 0.00 0.00 0.00 0.00 0.01 0.01 0.01 0.01 0.01 0.01 0.01 0.01 0.00 0.01 0.01 0.02 0.04 0.06
0.00 0.00 0.00 0.00 0.01 0.01 0.01 0.01 0.01 0.00 0.00 0.01 0.01 0.01 0.01 0.01 0.02 0.02 0.02 0.03 0.03 0.02 0.02 0.03 0.02 0.01 0.01 0.00 0.00 0.00 0.01 0.01 0.01 0.01 0.01 0.00 0.00 0.00 0.00 0.00 0.01 0.01 0.02 0.03
0.00 0.00 0.00 0.00 0.00 0.01 0.01 0.01 0.00 0.00 0.00 0.00 0.01 0.01 0.01 0.01 0.01 0.02 0.02 0.02 0.01 0.01 0.01 0.01 0.02 0.01 0.01 0.01 0.00 0.01 0.01 0.01 0.01 0.01 0.00 0.00 0.00 0.01 0.00 0.00 0.00 0.01 0.01 0.01
MSLP
1007.77 1008.56 1009.14 1009.50 1009.68 1009.71 1009.64 1009.51 1009.34 1009.13 1008.89 1008.58 1008.22 1007.82 1007.40 1007.04 1006.78 1006.67 1006.77 1007.06 1007.52 1008.11 1008.75 1009.36 1009.90 1010.31 1010.61 1010.81 1010.95 1011.09 1011.27 1011.51 1011.82 1012.19 1012.58 1012.97 1013.31 1013.60 1013.84 1014.04 1014.23 1014.45 1014.71 1015.03
1007.98 1008.61 1009.01 1009.24 1009.32 1009.31 1009.27 1009.22 1009.14 1009.03 1008.84 1008.55 1008.15 1007.66 1007.12 1006.62 1006.24 1006.05 1006.10 1006.40 1006.92 1007.59 1008.34 1009.06 1009.68 1010.17 1010.51 1010.74 1010.91 1011.07 1011.28 1011.57 1011.95 1012.38 1012.84 1013.28 1013.65 1013.94 1014.16 1014.31 1014.45 1014.61 1014.83 1015.12
1007.93 1008.39 1008.65 1008.76 1008.78 1008.79 1008.82 1008.88 1008.93 1008.93 1008.81 1008.54 1008.09 1007.50 1006.84 1006.19 1005.68 1005.39 1005.39 1005.69 1006.26 1007.01 1007.86 1008.69 1009.41 1009.97 1010.36 1010.62 1010.81 1010.99 1011.22 1011.55 1011.98 1012.48 1013.00 1013.49 1013.91 1014.22 1014.43 1014.57 1014.67 1014.78 1014.96 1015.21
1007.59 1007.91 1008.05 1008.10 1008.12 1008.19 1008.33 1008.53 1008.73 1008.85 1008.81 1008.56 1008.07 1007.39 1006.59 1005.80 1005.15 1004.76 1004.70 1004.99 1005.60 1006.43 1007.38 1008.30 1009.11 1009.74 1010.18 1010.47 1010.66 1010.84 1011.08 1011.43 1011.89 1012.44 1013.02 1013.57 1014.04 1014.40 1014.63 1014.77 1014.85 1014.94 1015.08 1015.30
1007.01 1007.22 1007.29 1007.32 1007.39 1007.56 1007.84 1008.21 1008.57 1008.82 1008.86 1008.63 1008.11 1007.33 1006.41 1005.48 1004.71 1004.22 1004.10 1004.38 1005.01 1005.90 1006.93 1007.94 1008.83 1009.51 1009.99 1010.29 1010.48 1010.64 1010.87 1011.22 1011.69 1012.26 1012.88 1013.49 1014.02 1014.43 1014.71 1014.87 1014.97 1015.06 1015.18 1015.38
1006.27 1006.41 1006.45 1006.51 1006.67 1006.97 1007.42 1007.95 1008.46 1008.83 1008.95 1008.73 1008.17 1007.33 1006.30 1005.26 1004.38 1003.80 1003.63 1003.89 1004.54 1005.48 1006.56 1007.63 1008.58 1009.31 1009.81 1010.10 1010.28 1010.42 1010.61 1010.93 1011.38 1011.96 1012.61 1013.26 1013.85 1014.32 1014.65 1014.87 1015.00 1015.11 1015.24 1015.42
1005.46 1005.56 1005.63 1005.76 1006.03 1006.48 1007.09 1007.77 1008.41 1008.87 1009.03 1008.83 1008.24 1007.34 1006.23 1005.11 1004.15 1003.52 1003.30 1003.55 1004.20 1005.16 1006.28 1007.39 1008.37 1009.13 1009.64 1009.94 1010.08 1010.19 1010.34 1010.62 1011.04 1011.60 1012.26 1012.93 1013.56 1014.09 1014.48 1014.76 1014.94 1015.08 1015.23 1015.42
1004.62 1004.75 1004.89 1005.12 1005.52 1006.11 1006.84 1007.64 1008.36 1008.88 1009.07 1008.86 1008.25 1007.30 1006.16 1005.00 1004.00 1003.34 1003.10 1003.33 1003.98 1004.94 1006.07 1007.21 1008.20 1008.98 1009.49 1009.78 1009.91 1009.98 1010.10 1010.33 1010.71 1011.24 1011.88 1012.56 1013.21 1013.78 1014.23 1014.56 1014.79 1014.98 1015.15 1015.36
1003.81 1004.00 1004.24 1004.60 1005.13 1005.84 1006.67 1007.52 1008.28 1008.80 1008.98 1008.75 1008.12 1007.17 1006.02 1004.87 1003.88 1003.22 1002.98 1003.21 1003.85 1004.80 1005.92 1007.04 1008.04 1008.82 1009.34 1009.63 1009.77 1009.83 1009.92 1010.11 1010.45 1010.95 1011.55 1012.21 1012.86 1013.45 1013.93 1014.30 1014.58 1014.80 1015.01 1015.24
1003.01 1003.31 1003.68 1004.18 1004.83 1005.62 1006.50 1007.36 1008.09 1008.57 1008.70 1008.45 1007.81 1006.88 1005.77 1004.67 1003.73 1003.12 1002.91 1003.14 1003.76 1004.69 1005.77 1006.87 1007.85 1008.63 1009.16 1009.48 1009.63 1009.71 1009.80 1009.98 1010.30 1010.75 1011.31 1011.94 1012.57 1013.14 1013.63 1014.02 1014.33 1014.58 1014.81 1015.06
1002.22 1002.66 1003.18 1003.82 1004.57 1005.40 1006.27 1007.09 1007.74 1008.13 1008.20 1007.90 1007.28 1006.39 1005.37 1004.36 1003.53 1002.99 1002.84 1003.08 1003.69 1004.57 1005.60 1006.65 1007.60 1008.37 1008.93 1009.28 1009.48 1009.61 1009.73 1009.93 1010.24 1010.66 1011.18 1011.76 1012.35 1012.90 1013.37 1013.75 1014.07 1014.33 1014.58 1014.84
1001.42 1002.03 1002.71 1003.47 1004.29 1005.13 1005.95 1006.66 1007.19 1007.47 1007.45 1007.12 1006.52 1005.71 1004.81 1003.95 1003.25 1002.83 1002.74 1003.01 1003.59 1004.42 1005.38 1006.36 1007.27 1008.02 1008.60 1009.01 1009.28 1009.47 1009.66 1009.91 1010.23 1010.64 1011.13 1011.67 1012.20 1012.70 1013.14 1013.51 1013.81 1014.08 1014.33 1014.60
1000.65 1001.42 1002.24 1003.10 1003.96 1004.78 1005.50 1006.08 1006.46 1006.61 1006.49 1006.14 1005.57 1004.87 1004.12 1003.43 1002.90 1002.62 1002.62 1002.91 1003.46 1004.22 1005.10 1006.00 1006.84 1007.57 1008.16 1008.62 1008.98 1009.27 1009.55 1009.85 1010.22 1010.64 1011.11 1011.60 1012.09 1012.54 1012.94 1013.28 1013.57 1013.84 1014.10 1014.38
999.95 1000.86 1001.81 1002.73 1003.59 1004.34 1004.94 1005.36 1005.57 1005.57 1005.37 1004.99 1004.48 1003.90 1003.32 1002.83 1002.49 1002.35 1002.45 1002.77 1003.30 1003.98 1004.75 1005.55 1006.32 1007.01 1007.62 1008.12 1008.56 1008.95 1009.33 1009.72 1010.13 1010.58 1011.04 1011.51 1011.96 1012.37 1012.74 1013.06 1013.35 1013.62 1013.89 1014.18
999.39 1000.41 1001.43 1002.37 1003.19 1003.84 1004.29 1004.53 1004.57 1004.43 1004.14 1003.75 1003.31 1002.86 1002.46 1002.17 1002.02 1002.04 1002.23 1002.58 1003.08 1003.69 1004.36 1005.05 1005.73 1006.38 1006.97 1007.52 1008.03 1008.51 1008.98 1009.46 1009.94 1010.42 1010.90 1011.35 1011.78 1012.17 1012.52 1012.83 1013.13 1013.41 1013.71 1014.02
999.03 1000.10 1001.13 1002.04 1002.78 1003.30 1003.58 1003.64 1003.51 1003.24 1002.87 1002.48 1002.10 1001.79 1001.57 1001.47 1001.50 1001.66 1001.95 1002.34 1002.81 1003.35 1003.92 1004.51 1005.10 1005.69 1006.27 1006.84 1007.41 1007.97 1008.53 1009.09 1009.63 1010.15 1010.65 1011.11 1011.53 1011.91 1012.26 1012.59 1012.90 1013.22 1013.54 1013.88
998.88 999.93 1000.91 1001.74 1002.36 1002.72 1002.83 1002.72 1002.43 1002.04 1001.62 1001.23 1000.91 1000.72 1000.66 1000.73 1000.93 1001.23 1001.61 1002.03 1002.50 1002.97 1003.47 1003.97 1004.48 1005.02 1005.57 1006.15 1006.76 1007.38 1008.00 1008.62 1009.22 1009.78 1010.31 1010.78 1011.21 1011.61 1011.97 1012.32 1012.67 1013.02 1013.38 1013.74
998.90 999.86 1000.73 1001.43 1001.90 1002.10 1002.05 1001.78 1001.37 1000.88 1000.42 1000.03 999.78 999.68 999.75 999.98 1000.31 1000.73 1001.19 1001.66 1002.12 1002.57 1003.01 1003.45 1003.91 1004.40 1004.93 1005.51 1006.14 1006.80 1007.47 1008.13 1008.77 1009.37 1009.92 1010.41 1010.86 1011.27 1011.66 1012.04 1012.42 1012.80 1013.20 1013.59
998.96 999.78 1000.50 1001.05 1001.36 1001.41 1001.22 1000.83 1000.33 999.79 999.30 998.93 998.73 998.72 998.89 999.22 999.67 1000.18 1000.71 1001.23 1001.71 1002.16 1002.58 1002.98 1003.41 1003.88 1004.40 1004.98 1005.61 1006.29 1006.99 1007.68 1008.34 1008.96 1009.53 1010.04 1010.50 1010.93 1011.34 1011.75 1012.16 1012.57 1012.99 1013.39
998.94 999.58 1000.13 1000.50 1000.67 1000.60 1000.32 999.87 999.32 998.77 998.29 997.95 997.80 997.85 998.09 998.50 999.02 999.60 1000.20 1000.76 1001.28 1001.75 1002.18 1002.59 1003.01 1003.47 1003.99 1004.57 1005.21 1005.89 1006.60 1007.30 1007.97 1008.59 1009.17 1009.69 1010.17 1010.61 1011.04 1011.46 1011.88 1012.31 1012.73 1013.14
998.70 999.14 999.50 999.74 999.79 999.65 999.33 998.88 998.36 997.84 997.41 997.12 997.02 997.12 997.41 997.86 998.43 999.05 999.69 1000.30 1000.86 1001.36 1001.82 1002.26 1002.70 1003.18 1003.70 1004.28 1004.92 1005.59 1006.29 1006.99 1007.66 1008.28 1008.86 1009.38 1009.86 1010.31 1010.74 1011.17 1011.58 1012.00 1012.41 1012.80
998.14 998.39 998.59 998.71 998.71 998.56 998.28 997.89 997.46 997.04 996.69 996.48 996.43 996.57 996.88 997.35 997.93 998.57 999.23 999.87 1000.47 1001.01 1001.52 1001.99 1002.47 1002.96 1003.49 1004.07 1004.70 1005.36 1006.04 1006.72 1007.37 1007.99 1008.56 1009.08 1009.56 1010.01 1010.43 1010.84 1011.24 1011.63 1012.01 1012.37
997.27 997.34 997.43 997.48 997.47 997.37 997.19 996.94 996.65 996.37 996.15 996.03 996.05 996.22 996.54 997.01 997.58 998.21 998.86 999.52 1000.14 1000.72 1001.26 1001.77 1002.27 1002.78 1003.32 1003.89 1004.49 1005.13 1005.78 1006.43 1007.06 1007.67 1008.23 1008.75 1009.22 1009.66 1010.07 1010.46 1010.82 1011.18 1011.52 1011.83
996.17 996.10 996.10 996.13 996.17 996.18 996.16 996.09 995.99 995.89 995.82 995.81 995.90 996.10 996.42 996.86 997.39 997.99 998.63 999.27 999.89 1000.49 1001.05 1001.57 1002.09 1002.59 1003.11 1003.66 1004.23 1004.82 1005.43 1006.05 1006.66 1007.25 1007.80 1008.32 1008.79 1009.22 1009.61 1009.97 1010.31 1010.62 1010.91 1011.19
994.97 994.81 994.76 994.82 994.94 995.10 995.26 995.40 995.51 995.60 995.69 995.80 995.96 996.19 996.50 996.91 997.39 997.94 998.53 999.14 999.74 1000.33 1000.88 1001.40 1001.89 1002.37 1002.85 1003.35 1003.86 1004.40 1004.96 1005.54 1006.12 1006.69 1007.23 1007.75 1008.22 1008.65 1009.03 1009.37 1009.68 1009.95 1010.20 1010.44
993.88 993.65 993.60 993.71 993.94 994.25 994.60 994.94 995.26 995.54 995.78 996.00 996.22 996.47 996.77 997.13 997.56 998.05 998.58 999.14 999.70 1000.25 1000.77 1001.25 1001.70 1002.12 1002.54 1002.96 1003.40 1003.86 1004.36 1004.88 1005.43 1005.98 1006.52 1007.03 1007.51 1007.95 1008.33 1008.65 1008.94 1009.18 1009.40 1009.61
Thickness
5755 5743 5733 5738 5743 5740 5736 5730 5727 5733 5742 5735 5729 5729 5733 5739 5737 5734 5732 5732 5732 5734 5738 5739 5737 5736 5733 5731 5729 5725 5722 5720 5717 5713 5709 5706 5704 5704 5703 5702 5702 5701 5700 5699
5741 5733 5743 5748 5745 5739 5733 5724 5723 5730 5740 5733 5726 5727 5734 5736 5733 5733 5732 5731 5732 5732 5733 5733 5732 5730 5729 5726 5724 5722 5719 5717 5714 5711 5708 5705 5703 5701 5700 5699 5699 5698 5697 5696
5731 5739 5748 5741 5734 5729 5728 5722 5721 5720 5728 5732 5724 5717 5724 5733 5735 5734 5735 5734 5733 5731 5730 5729 5728 5726 5725 5722 5721 5720 5717 5714 5712 5709 5706 5703 5701 5698 5695 5694 5694 5695 5694 5693
5737 5746 5742 5733 5729 5726 5718 5729 5727 5722 5714 5711 5719 5697 5715 5726 5724 5727 5729 5730 5730 5729 5729 5727 5725 5723 5721 5721 5720 5718 5715 5712 5710 5708 5703 5699 5695 5691 5691 5692 5691 5692 5692 5691
5731 5739 5734 5726 5728 5729 5725 5733 5728 5723 5716 5711 5717 5704 5710 5724 5715 5720 5724 5726 5726 5726 5726 5723 5722 5720 5720 5718 5716 5714 5712 5710 5708 5706 5702 5698 5694 5692 5691 5690 5689 5688 5689 5688
5736 5744 5739 5733 5737 5735 5732 5727 5725 5724 5714 5695 5712 5705 5700 5714 5716 5718 5721 5721 5722 5722 5722 5720 5719 5718 5715 5714 5712 5710 5707 5706 5705 5703 5700 5696 5692 5690 5687 5686 5684 5684 5685 5685
5724 5733 5739 5739 5726 5727 5724 5707 5691 5690 5688 5695 5718 5707 5701 5717 5725 5723 5718 5717 5718 5718 5716 5714 5712 5709 5707 5707 5706 5705 5703 5701 5701 5700 5697 5695 5692 5689 5686 5684 5683 5682 5682 5681
5711 5712 5729 5732 5724 5715 5717 5709 5684 5675 5684 5696 5708 5699 5705 5722 5725 5724 5720 5716 5714 5711 5710 5708 5707 5704 5702 5701 5701 5701 5699 5697 5696 5696 5695 5693 5691 5688 5686 5685 5683 5682 5681 5681
5709 5710 5730 5733 5732 5723 5710 5708 5712 5697 5695 5690 5697 5701 5706 5716 5715 5715 5713 5709 5706 5706 5704 5703 5702 5700 5699 5697 5696 5695 5695 5693 5693 5692 5691 5690 5689 5687 5685 5684 5684 5682 5681 5681
5715 5703 5719 5728 5727 5725 5721 5715 5706 5691 5678 5675 5691 5695 5690 5698 5702 5706 5704 5702 5701 5701 5700 5698 5697 5695 5694 5693 5692 5691 5690 5689 5689 5689 5688 5687 5685 5685 5684 5682 5681 5680 5680 5679
5715 5701 5707 5715 5710 5708 5711 5707 5704 5698 5694 5677 5672 5681 5708 5703 5702 5701 5700 5698 5697 5696 5695 5693 5691 5690 5690 5689 5688 5686 5685 5685 5684 5684 5683 5683 5681 5681 5680 5679 5678 5677 5677 5676
5710 5701 5695 5707 5721 5722 5713 5707 5701 5683 5683 5688 5676 5678 5712 5708 5705 5702 5698 5696 5695 5693 5691 5689 5687 5684 5683 5682 5682 5680 5680 5679 5678 5678 5678 5677 5677 5676 5675 5674 5674 5674 5673 5672
5699 5692 5683 5689 5699 5707 5704 5705 5703 5697 5690 5682 5671 5675 5706 5704 5701 5698 5695 5692 5690 5688 5686 5683 5680 5678 5676 5676 5675 5675 5674 5674 5674 5673 5672 5671 5670 5670 5669 5669 5669 5669 5668 5667
5694 5688 5683 5675 5686 5696 5694 5696 5698 5690 5678 5677 5679 5679 5689 5691 5691 5691 5689 5687 5684 5682 5680 5677 5674 5672 5670 5669 5668 5668 5668 5668 5668 5666 5665 5663 5663 5663 5663 5663 5664 5663 5663 5662
5693 5683 5689 5695 5701 5699 5694 5692 5692 5687 5683 5675 5680 5682 5685 5687 5688 5687 5685 5682 5679 5675 5674 5671 5668 5666 5665 5664 5663 5662 5662 5662 5661 5659 5658 5657 5656 5656 5655 5655 5656 5657 5656 5656
5690 5682 5685 5686 5695 5694 5689 5690 5689 5686 5685 5681 5680 5679 5688 5689 5687 5683 5680 5676 5672 5669 5668 5667 5664 5662 5660 5659 5657 5657 5656 5656 5654 5652 5650 5650 5650 5649 5649 5647 5648 5648 5648 5648
5683 5678 5672 5673 5686 5684 5675 5685 5685 5683 5684 5679 5670 5675 5683 5679 5677 5676 5674 5672 5668 5665 5663 5662 5660 5657 5656 5655 5653 5651 5650 5650 5648 5646 5644 5643 5642 5640 5640 5640 5640 5639 5639 5640
5676 5672 5668 5667 5669 5655 5674 5693 5689 5681 5680 5681 5678 5678 5677 5674 5675 5675 5674 5668 5664 5661 5658 5656 5654 5653 5652 5650 5649 5647 5645 5643 5641 5639 5637 5636 5634 5632 5632 5631 5631 5631 5631 5631
5678 5667 5659 5657 5653 5660 5672 5681 5679 5670 5668 5677 5673 5672 5672 5673 5668 5666 5669 5667 5662 5658 5655 5651 5649 5648 5646 5644 5642 5640 5638 5635 5633 5631 5630 5629 5627 5625 5624 5623 5622 5623 5623 5623
5671 5666 5654 5649 5642 5642 5660 5674 5678 5668 5656 5670 5669 5666 5664 5662 5647 5650 5660 5659 5656 5653 5650 5646 5644 5642 5639 5637 5635 5632 5629 5628 5625 5624 5623 5622 5620 5619 5617 5616 5615 5615 5615 5615
5652 5651 5645 5641 5639 5648 5663 5668 5666 5642 5645 5662 5662 5659 5656 5650 5648 5651 5653 5651 5648 5646 5643 5640 5637 5633 5631 5629 5627 5623 5622 5620 5619 5617 5616 5614 5613 5612 5611 5610 5608 5607 5607 5607
5647 5642 5641 5639 5633 5638 5659 5657 5647 5646 5657 5657 5655 5653 5650 5647 5647 5647 5645 5642 5640 5638 5636 5633 5629 5626 5624 5622 5619 5616 5614 5614 5613 5610 5608 5607 5606 5605 5604 5602 5600 5600 5598 5597
5649 5647 5643 5640 5639 5651 5654 5650 5651 5653 5649 5648 5648 5647 5645 5641 5639 5637 5636 5634 5633 5631 5628 5625 5622 5619 5617 5615 5612 5609 5608 5607 5605 5603 5600 5599 5598 5597 5596 5594 5592 5591 5590 5588
5648 5651 5644 5639 5642 5645 5646 5647 5646 5645 5642 5642 5641 5640 5638 5634 5632 5629 5628 5626 5625 5623 5620 5617 5614 5611 5608 5607 5605 5603 5601 5600 5597 5595 5593 5592 5590 5589 5587 5585 5584 5582 5580 5578
5634 5636 5633 5631 5635 5636 5638 5638 5637 5636 5636 5635 5633 5632 5629 5627 5625 5623 5620 5619 5617 5615 5613 5610 5606 5603 5601 5599 5597 5595 5593 5591 5589 5587 5586 5584 5583 5581 5578 5576 5574 5573 5571 5569
5631 5627 5622 5621 5628 5626 5627 5631 5631 5627 5625 5624 5623 5622 5621 5620 5617 5616 5613 5611 5609 5606 5605 5602 5599 5597 5594 5592 5589 5587 5585 5583 5581 5578 5577 5575 5573 5571 5570 5567 5565 5564 5563 5562